Location: Budapest
(47.4979°N, 19.0402°E)
Time: 04:53:54
(UTC+02:00)

OTV 5 (USA 277) - Pass Details

Date: 17 October 2017
Orbit: 404 x 417 km, 43.0° (Epoch: 07 September)

Event Time Altitude Azimuth Distance (km) Brightness Sun altitude
Rises 20:03:40 0° 267° (W) 2,356 ? -22.9°
Reaches altitude 10° 20:05:57 10° 256° (WSW) 1,492 ? -23.3°
Enters shadow 20:08:02 25° 223° (SW) 895 ? -23.6°
